Location: Voyageurs National Park
(48.5020°N, 92.9292°W)
Time: 12:07:46
(UTC-05:00)

PCSat - Visible Passes

Search period start: 24 June 2017 00:00
Search period end: 04 July 2017 00:00
Orbit: 784 x 796 km, 67.1° (Epoch: 23 June)

Date Brightness Start Highest point End Pass type
(mag) Time Alt. Az. Time Alt. Az. Time Alt. Az.
24 Jun 11.4 23:06:15 10° WNW 23:10:23 23° WSW 23:14:32 10° SSW visible
25 Jun 11.0 22:35:01 10° NW 22:39:41 30° WSW 22:44:20 10° S visible
26 Jun 10.6 22:03:54 10° NW 22:08:56 40° WSW 22:13:57 10° S visible
28 Jun 12.1 22:48:00 10° W 22:49:43 11° WSW 22:51:26 10° WSW visible
29 Jun 11.9 22:15:53 10° WNW 22:19:05 16° WSW 22:22:17 10° SW visible
